Tri-Cities, TN

3:54 AM EDT on March 24, 2017 (GMT -0400)
Tri-Cities Regional Tennessee / Virginia

Weather History for KTRI - June, 2014

Change the Weather History Date:

Tuesday, June 10, 2014

  Actual Average Record
Temperature  
Mean Temperature 77 °F 70 °F  
Max Temperature 91 °F 82 °F 94 °F (1947)
Min Temperature 62 °F 59 °F 42 °F (1977)
Degree Days  
Heating Degree Days 0 0  
Month to date heating degree days 0 9  
Since 1 June heating degree days 0 9  
Since 1 July heating degree days 4410 4372  
Cooling Degree Days 12 6  
Month to date cooling degree days 79 50  
Year to date cooling degree days 213 123  
Since 1 June cooling degree days 79 50  
Growing Degree Days 26 (Base 50)    
Moisture  
Dew Point 62 °F    
Average Humidity 66    
Maximum Humidity 93    
Minimum Humidity 38    
Precipitation  
Precipitation 0.34 in 0.12 in 1.32 in (1971)
Month to date precipitation 0.55 1.28  
Year to date precipitation 12.55 18.67  
Snow  
Snow 0.00 in 0.00 in - ()
Month to date snowfall 0.0 0.0  
Since 1 June snowfall 0.0 0.0  
Since 1 July snowfall 13.0 13.3  
Snow Depth 0.00 in    
Sea Level Pressure  
Sea Level Pressure 29.91 in    
Wind  
Wind Speed 4 mph (WSW)    
Max Wind Speed 22 mph    
Max Gust Speed 31 mph    
Visibility 8 miles    
Events Rain , Thunderstorm    
T = Trace of Precipitation, MM = Missing Value Source: NWS Daily Summary

Daily Weather History Graph

Daily Weather History Graph

Search for Another Location

Airport or City:

Trip Planner

Search our weather history database for the weather conditions in past years. The results will help you decide how hot, cold, wet, or windy it might be!

Date:

Astronomy

Jun. 10, 2014 Rise Set
Actual Time 6:11 AM EDT 8:47 PM EDT
Civil Twilight 5:40 AM EDT 9:17 PM EDT
Nautical Twilight 5:03 AM EDT 9:55 PM EDT
Astronomical Twilight 4:21 AM EDT 10:37 PM EDT
Moon 6:15 PM EDT (6/10) 4:11 AM EDT (6/10)
Length of Visible Light 15h 36m
Length of Day
14h 36m
Waxing Gibbous, 92% of the Moon is Illuminated
Jun 10
Waxing Gibbous
Jun 13
Full
Jun 19
Last Quarter
Jun 27
New
Jul 5
First Quarter

Hourly Weather History & Observations

Time (EDT) Temp. Heat Index Dew Point Humidity Pressure Visibility Wind Dir Wind Speed Gust Speed Precip Events Conditions
12:53 AM 68.0 °F - 62.1 °F 81% 29.90 in 10.0 mi Calm Calm - N/A   Scattered Clouds
1:53 AM 66.0 °F - 61.0 °F 84% 29.88 in 10.0 mi Calm Calm - N/A   Clear
2:53 AM 64.0 °F - 60.1 °F 87% 29.88 in 10.0 mi Calm Calm - N/A   Clear
3:53 AM 62.6 °F - 60.8 °F 94% 29.97 in 9.0 mi Calm Calm - N/A   Scattered Clouds
4:53 AM 62.1 °F - 59.0 °F 90% 29.91 in 8.0 mi North 3.5 mph - N/A   Mostly Cloudy
5:53 AM 66.0 °F - 61.0 °F 84% 29.91 in 10.0 mi SW 8.1 mph - 0.00 in   Mostly Cloudy
6:53 AM 66.9 °F - 61.0 °F 81% 29.87 in 10.0 mi Calm Calm - N/A   Mostly Cloudy
7:53 AM 71.1 °F - 60.1 °F 68% 29.89 in 10.0 mi Calm Calm - N/A   Mostly Cloudy
8:53 AM 73.9 °F - 60.1 °F 62% 29.91 in 10.0 mi West 4.6 mph - N/A   Mostly Cloudy
9:53 AM 75.9 °F - 59.0 °F 56% 29.91 in 10.0 mi Calm Calm - N/A   Mostly Cloudy
10:53 AM 80.6 °F 81.1 °F 59.0 °F 48% 30.00 in 10.0 mi West 6.9 mph - N/A   Mostly Cloudy
11:53 AM 82.0 °F 82.0 °F 57.9 °F 44% 29.92 in 10.0 mi West 8.1 mph - N/A   Scattered Clouds
12:53 PM 84.0 °F 83.8 °F 59.0 °F 43% 29.91 in 10.0 mi SW 11.5 mph 18.4 mph N/A   Scattered Clouds
1:53 PM 87.1 °F 86.5 °F 59.0 °F 39% 29.89 in 10.0 mi WSW 13.8 mph 18.4 mph N/A   Scattered Clouds
2:53 PM 88.0 °F 87.1 °F 59.0 °F 37% 29.87 in 10.0 mi Calm Calm - N/A   Scattered Clouds
3:53 PM 88.0 °F 87.6 °F 60.1 °F 39% 29.84 in 10.0 mi Variable 3.5 mph - N/A   Scattered Clouds
4:53 PM 89.6 °F 89.5 °F 60.8 °F 38% 29.90 in 10.0 mi Calm Calm - N/A   Partly Cloudy
5:30 PM 89.6 °F 89.5 °F 60.8 °F 38% 29.90 in 10.0 mi Calm Calm - N/A Thunderstorm Thunderstorm
5:53 PM 89.1 °F 88.8 °F 60.1 °F 38% 29.81 in 10.0 mi Calm Calm - 0.00 in Rain , Thunderstorm Light Thunderstorms and Rain
6:53 PM 77.0 °F - 66.9 °F 71% 29.84 in 7.0 mi West 15.0 mph 27.6 mph 0.04 in Rain , Thunderstorm Light Thunderstorms and Rain
7:33 PM 71.1 °F - 66.9 °F 87% 29.93 in 1.0 mi West 18.4 mph 31.1 mph 0.05 in Rain , Thunderstorm Heavy Thunderstorms and Rain
7:41 PM 71.1 °F - 66.9 °F 87% 29.94 in 3.0 mi WSW 10.4 mph 31.1 mph 0.15 in Rain , Thunderstorm Light Thunderstorms and Rain
7:53 PM 71.1 °F - 68.0 °F 90% 29.94 in 7.0 mi SW 13.8 mph - 0.15 in Thunderstorm Thunderstorm
8:01 PM 71.1 °F - 66.0 °F 84% 30.00 in 2.0 mi WSW 13.8 mph 20.7 mph 0.08 in Rain , Thunderstorm Thunderstorms and Rain
8:14 PM 70.0 °F - 63.0 °F 78% 30.00 in 3.0 mi WSW 12.7 mph - 0.11 in Rain , Thunderstorm Light Thunderstorms and Rain
8:42 PM 69.1 °F - 64.0 °F 84% 30.00 in 4.0 mi SW 3.5 mph - 0.14 in   Haze
8:53 PM 69.1 °F - 63.0 °F 81% 29.93 in 10.0 mi WSW 8.1 mph - 0.14 in   Mostly Cloudy
9:53 PM 66.9 °F - 64.0 °F 90% 29.92 in 10.0 mi ESE 8.1 mph - 0.00 in Rain Light Rain
10:53 PM 66.2 °F - 62.6 °F 88% 29.97 in 10.0 mi Calm Calm - N/A   Overcast
11:53 PM 66.0 °F - 63.0 °F 90% 29.90 in 10.0 mi Calm Calm - N/A   Overcast